Regional Weather Roundup
Issued by NWS

Home | Current Version | Previous Version | Text Only | Print | Product List | Glossary On
Versions: 1 2 3 4 5 6 7 8 9 10 11 12 13 14 15 16 17 18 19 20 21 22 23 24 25 26 27 28 29 30 31 32 33 34 35 36 37 38 39 40 41 42 43 44 45 46 47 48 49 50
000
ASUS43 KLOT 221904
RWRIL

ILLINOIS REGIONAL WEATHER ROUNDUP
NATIONAL WEATHER SERVICE CHICAGO/ROMEOVILLE IL
200 PM CDT SUN OCT 22 2017

NOTE: "FAIR" INDICATES FEW OR NO CLOUDS BELOW 12,000 FEET WITH NO
SIGNIFICANT WEATHER AND/OR OBSTRUCTIONS TO VISIBILITY.

* THESE STATIONS ARE NOT UNDER NWS QUALITY CONTROL. THEY ALSO MAY NOT
  REPORT WEATHER SUCH AS PRECIPITATION OR FOG.

ILZ001-002-007-009-015-016-024-222000-
NORTHWEST ILLINOIS

CITY           SKY/WX    TMP DP  RH WIND       PRES   REMARKS
MOLINE         CLOUDY    54  46  74 N6        30.02R
STERLING*      LGT RAIN  52  49  89 N9          N/A
SAVANNA*       CLOUDY    53  47  81 N6        30.01F
$$

ILZ003-004-008-010-011-017-018-222000-
NORTH CENTRAL ILLINOIS

CITY           SKY/WX    TMP DP  RH WIND       PRES   REMARKS
ROCKFORD       CLOUDY    52  47  83 N14       30.02R
FREEPORT*      CLOUDY    51  47  87 N3        30.02F
ROCHELLE*      LGT RAIN  51  50  95 N17G25    30.01R
$$

ILZ005-006-012>014-019>023-222000-
NORTHEAST ILLINOIS

CITY           SKY/WX    TMP DP  RH WIND       PRES   REMARKS
CHICAGO-OHARE  CLOUDY    69  61  75 S10       29.90F
CHICAGO-MIDWAY CLOUDY    72  61  68 S16G28    29.91S
AURORA         LGT RAIN  55  54  96 NW17G26   29.96R FOG
LANSING*       CLOUDY    70  63  77 S20       29.94S
JOLIET*        RAIN      69  65  86 SW12G24   29.92R
WAUKEGAN       CLOUDY    66  64  93 W9        29.92R
DUPAGE AIRPORT LGT RAIN  58  58 100 NW18G28   29.93R FOG
KANKAKEE*      CLOUDY    70  60  70 S16G23    29.95S
WHEELING       CLOUDY    70  63  78 S7        29.92S
MORRIS*        RAIN      57  56  95 NW17G23   29.93R
NORTHERLY ISL    N/A     70  59  68 SE10        N/A
$$

LMZ740>746-222000-
SOUTHERN LAKE MICHIGAN

STATION/POSITION SKY/WX   TEMP    WIND        PRES    VSBY  WAVE
                          AIR SEA DIR/SP/G                  HT/PER
                          (F)     (DEG/KT/KT) (MB)    (MI)  (FT/S)
SOUTHERN BUOY              63 61  160/ 17/ 19 1013.5          3/ 5
WILMETTE HARBOR            63 58  160/ 10/ 14   N/A           3/ 4
HARRISON CRIB              67     170/ 19/ 21   N/A
BURNHAM HARBOR             71     160/ 16/ 17   N/A
CALUMET HARBOR             71     170/ 12/ 18 1012.5F
BURNS HARBOR               72     190/ 18/ 26 1013.9F
MICHIGAN CITY              72     170/ 18/ 23   N/A
MICHIGAN CITY 6N           69 58  180/ 17/ 23   N/A           2/ 2
ST. JOSEPH                 68 60  180/ 16/ 19 1013.9F         3/ 4
$$

ILZ025>027-034>036-040-047-049-050-058-095>099-222000-
WEST-CENTRAL ILLINOIS

CITY           SKY/WX    TMP DP  RH WIND       PRES   REMARKS
QUINCY         CLOUDY    55  47  74 NW10      30.06R
MACOMB*        LGT RAIN  53  49  87 N10       30.06R
JACKSONVILLE*  CLOUDY    53  51  93 NW18G24   30.04R FOG
$$

ILZ028>032-037-038-041>044-048-051>054-059>061-222000-
CENTRAL ILLINOIS

CITY           SKY/WX    TMP DP  RH WIND       PRES   REMARKS
BLOOMINGTON    LGT RAIN  55  54  94 NW23G30   29.98R FOG
DECATUR        CLOUDY    68  63  84 S16       29.95S
PEORIA         LGT RAIN  52  51  97 N10G23    30.01R
LACON*         LGT RAIN  52  51  97 N15G24    30.00R
LINCOLN*       DRIZZLE   56  56 100 NW8       29.99R
SPRINGFIELD    CLOUDY    56  55  97 NW12G23   30.01R
TAYLORVILLE    DRIZZLE   58  58  98 W12G17    29.99R
$$

ILZ033-039-045-046-055>057-062-063-222000-
EAST-CENTRAL ILLINOIS

CITY           SKY/WX    TMP DP  RH WIND       PRES   REMARKS
CHAMPAIGN      CLOUDY    71  60  68 S24G32    29.96S
DANVILLE*      CLOUDY    72  61  66 S17G25    29.95S
MATTOON        CLOUDY    70  62  76 S14G21    29.96S
PARIS*         CLOUDY    74  62  66 S24G31    29.99S
$$

ILZ079-100>102-222000-
SOUTHWEST ILLINOIS

CITY           SKY/WX    TMP DP  RH WIND       PRES   REMARKS
ALTON          DRIZZLE   57  57 100 NW16      30.02R
BELLEVILLE     LGT RAIN  61  59  94 NW17      30.02S
CAHOKIA*       CLOUDY    61  56  83 NW16      30.02R
SPARTA*        CLOUDY    67  61  81 W8        29.99R
$$

ILZ064>066-069>071-074>076-080>082-084>086-088>090-092>094-222000-
SOUTH-CENTRAL ILLINOIS

CITY           SKY/WX    TMP DP  RH WIND       PRES   REMARKS
CARBONDALE     CLOUDY    74  64  71 S21G26    29.96S
EFFINGHAM*     CLOUDY    72  64  76 SE12G23   29.98S
MARION         CLOUDY    75  64  69 S14G24    29.98F
MT. VERNON     CLOUDY    73  63  70 S20G26    29.97S
CENTRALIA*     CLOUDY    73  65  75 S12       29.96R
SALEM*         CLOUDY    73  63  71 S8        29.96S
METROPOLIS*    CLOUDY    76  62  62 S6        29.99S
$$

ILZ067-068-072-073-078-083-087-091-222000-
SOUTHEAST ILLINOIS

CITY           SKY/WX    TMP DP  RH WIND       PRES   REMARKS
LAWRENCEVILLE  MOSUNNY   79  60  52 S28       29.99F HX  80
FLORA*         CLOUDY    75  64  67 S18G26    29.97S
FAIRFIELD*     CLOUDY    75  62  64 S9G16     29.97S
HARRISBURG*    CLOUDY    75  63  65 S15G22    29.98F
ROBINSON*      PTSUNNY   79  60  52 S21G29    29.99S HX  80
CARMI*         CLOUDY    77  62  59 S15G25    29.98F
$$

ABBREVIATIONS USED IN REMARKS
   TC - TEMPERATURE IN CELSIUS
  WCI - WIND CHILL INDEX
   HX - HEAT INDEX
  VSB - VISIBILITY
$$




USA.gov is the U.S. government's official web portal to all federal, state and local government web resources and services.